[Date Prev][Date Next][Thread Prev][Thread Next] - [Date Index][Thread Index][Author Index]

2 Line ISS Keps 2-12



ISS
1 25544U 98067A   03043.18179507  .00068258  00000-0  88147-3 0  6805
2 25544  51.6354 288.0418 0012654 191.8490 311.3266 15.58235821241501


----
Via the sarex mailing list at AMSAT.ORG courtesy of AMSAT-NA.
To unsubscribe, send "unsubscribe sarex" to Majordomo@amsat.org



AMSAT Top AMSAT Home